Preview of NWS' New Version of Forecast
This preview is not operational and should not be used for support decisions.

Regional Weather Roundup (RWR)

Issued by National Weather Service (NWS)

                            
000
ASUS45 KBOI 191310
RWRID 

IDAHO REGIONAL WEATHER ROUNDUP
NATIONAL WEATHER SERVICE BOISE ID
700 AM MDT THU SEP 19 2019

NOTE: "FAIR" INDICATES FEW OR NO CLOUDS BELOW 12000 FEET
WITH NO SIGNIFICANT WEATHER AND/OR OBSTRUCTIONS TO VISIBILITY

IDZ012-014-191400-
SOUTHWEST IDAHO

  
CITY           SKY/WX    TMP DP  RH WIND       PRES   REMARKS
BOISE          FOG       49  48  97 SW6       29.92S VSB 1/8          
CALDWELL       MOCLDY    46  45  96 CALM      29.92F                  
MOUNTAIN HOME  FOG       46  46 100 N8        29.91R VSB 7/8          
$$

IDZ016-017-191400-
SOUTHCENTRAL IDAHO

  
CITY           SKY/WX    TMP DP  RH WIND       PRES   REMARKS
BURLEY         CLOUDY    48  39  71 CALM      29.90S                  
JEROME         CLOUDY    49  41  74 CALM      29.92F                  
TWIN FALLS     NOT AVBL                                               
$$

IDZ019>023-191400-
SOUTHEAST IDAHO

  
CITY           SKY/WX    TMP DP  RH WIND       PRES   REMARKS
IDAHO FALLS    CLOUDY    48  36  63 SW9       29.94S                  
POCATELLO      CLOUDY    47  35  63 S5        29.94S                  
REXBURG        CLOUDY    49  35  58 SE3       29.95R                  
$$

IDZ006-010-011-018-031-032-191400-
CENTRAL IDAHO MOUNTAINS

  
CITY           SKY/WX    TMP DP  RH WIND       PRES   REMARKS
MCCALL         CLOUDY    39  37  92 CALM      29.95S                  
HAILEY         CLOUDY    45  41  87 N3        29.97R                  
STANLEY          N/A     37  34  89 CALM      29.99R                  
SALMON         CLOUDY    45  43  93 CALM      29.96R                  
CHALLIS        CLOUDY    44  41  89 S5        29.95R                  
$$

IDZ002-004-006-007-026-191400-
NORTHERN IDAHO

  
CITY           SKY/WX    TMP DP  RH WIND       PRES   REMARKS
LEWISTON       RAIN      52  49  89 E3        29.97R                  
LOWELL           N/A     52  50  93 CALM      29.99R                  
COEUR D'ALENE  CLOUDY    46  46 100 N3        29.98S FOG              
MULLAN PASS    CLOUDY    38  36  92 NW5       29.98S WCI  34          
$$